User: anonymous   Login
Location: Darlington Observatory
(36.4817°N, 105.8156°W)
Time: 17:51:52
(UTC-07:00)
Language:

MOS 1 - Orbit

View from above orbital plane
View from above orbital plane
View from above satellite
View from above satellite

Ground track
Ground track

The orbit data is extracted from the following two-line orbital elements,

1 17527U 87018A   14355.89023431  .00000196  00000-0  15769-3 0  7045
2 17527 099.2361 339.3656 0007659 269.4016 146.2823 14.02343993422141
Epoch (UTC): 21 December 2014 21:21:56
Eccentricity: 0.0007659
inclination: 99.2361°
perigee height: 880 km
apogee height: 891 km
right ascension of ascending node: 339.3656°
argument of perigee: 269.4016°
revolutions per day: 14.02343993
mean anomaly at epoch: 146.2823°
orbit number at epoch: 42214

The dashed part of the orbit path shows where the satellite is in the earth's shadow,  

DLR